Belize, Belize

3:07 PM CST on March 25, 2017 (GMT -0600)
Philip S W Goldson International

Weather History for MZBZ - November, 2010

Change the Weather History Date:

Monday, November 22, 2010

  Actual Average Record
Temperature  
Mean Temperature 78 °F -  
Max Temperature 84 °F 83 °F 87 °F (2007)
Min Temperature 73 °F 70 °F 59 °F (2006)
Cooling Degree Days 14    
Growing Degree Days 28 (Base 50)    
Moisture  
Dew Point 74 °F    
Average Humidity 86    
Maximum Humidity 100    
Minimum Humidity 67    
Precipitation  
Precipitation 0.12 in 0.23 in - ()
Sea Level Pressure  
Sea Level Pressure 30.00 in    
Wind  
Wind Speed 2 mph ()    
Max Wind Speed 8 mph    
Max Gust Speed -    
Visibility 7.0 miles    
Events Rain    
Averages and records for this station are not official NWS values.
T = Trace of Precipitation, MM = Missing Value Source: Averaged Metar Reports

Daily Weather History Graph

Daily Weather History Graph

Search for Another Location

Airport or City:

Trip Planner

Search our weather history database for the weather conditions in past years. The results will help you decide how hot, cold, wet, or windy it might be!

Date:

Astronomy

Nov. 22, 2010 Rise Set
Actual Time 6:02 AM CST 5:16 PM CST
Civil Twilight 5:39 AM CST 5:39 PM CST
Nautical Twilight 5:12 AM CST 6:06 PM CST
Astronomical Twilight 4:46 AM CST 6:32 PM CST
Moon 6:11 PM CST (11/22) 6:50 AM CST (11/22)
Length of Visible Light 12h 00m
Length of Day
11h 14m
Full, 99% of the Moon is Illuminated
Nov 22
Full
Nov 28
Last Quarter
Dec 5
New
Dec 13
First Quarter
Dec 21
Full

Hourly Weather History & Observations

Time (CST) Temp. Heat Index Dew Point Humidity Pressure Visibility Wind Dir Wind Speed Gust Speed Precip Events Conditions
12:00 AM 75 °F - 74 °F 95% 30.03 in 5 mi Calm Calm - - Rain Light Rain Showers
12:00 AM 75.2 °F - 73.4 °F 94% 30.01 in 5.0 mi Calm Calm - N/A Rain Light Rain Showers
3:00 AM 75 °F - 74 °F 94% 30.00 in 7 mi NNE 5.8 mph - - Rain Light Rain Showers
3:00 AM 75.2 °F - 73.4 °F 94% 29.98 in 6.2 mi NNE 5.8 mph - N/A Rain Light Rain Showers
6:00 AM 74 °F - 73 °F 95% 30.02 in 9 mi Calm Calm - -   Partly Cloudy
6:00 AM 73.4 °F - 73.4 °F 100% 30.01 in 6.2 mi Calm Calm - N/A   Scattered Clouds
7:00 AM 73.4 °F - 73.4 °F 100% 30.01 in 6.2 mi Calm Calm - N/A   Mostly Cloudy
8:00 AM 75.2 °F - 73.4 °F 94% 30.04 in 6.2 mi Calm Calm - N/A   Mostly Cloudy
9:00 AM 78 °F - 75 °F 88% 30.06 in 9 mi Calm Calm - - Rain Light Rain Showers
9:00 AM 78.8 °F - 75.2 °F 89% 30.05 in 6.2 mi Calm Calm - N/A Rain Light Rain Showers
9:05 AM 78.8 °F - 75.2 °F 89% 30.05 in 5.0 mi Calm Calm - N/A Rain Rain Showers
9:20 AM 78.8 °F - 75.2 °F 89% 30.06 in 1.9 mi NNE 3.5 mph - N/A Rain Rain Showers
10:00 AM 78.8 °F - 75.2 °F 89% 30.05 in 6.2 mi Calm Calm - N/A   Scattered Clouds
11:00 AM 80.6 °F 87.1 °F 77.0 °F 89% 30.03 in 6.2 mi Calm Calm - N/A   Scattered Clouds
12:00 PM 83 °F - 74 °F 67% 30.00 in 12 mi ENE 8.1 mph - -  
12:00 PM 82.4 °F 88.2 °F 73.4 °F 74% 30.00 in 6.2 mi ENE 8.1 mph - N/A   Scattered Clouds
1:00 PM 84.2 °F 92.3 °F 75.2 °F 74% 29.97 in 6.2 mi ENE 8.1 mph - N/A   Scattered Clouds
2:00 PM 84.2 °F 92.3 °F 75.2 °F 74% 29.96 in 6.2 mi East 6.9 mph - N/A   Scattered Clouds
3:00 PM 83 °F - 74 °F 69% 29.95 in 12 mi East 8.1 mph - -   Partly Cloudy
3:00 PM 82.4 °F 89.5 °F 75.2 °F 79% 29.94 in 6.2 mi East 8.1 mph - N/A   Mostly Cloudy
4:00 PM 82.4 °F 89.5 °F 75.2 °F 79% 29.95 in 6.2 mi East 6.9 mph - N/A   Mostly Cloudy
5:00 PM 82.4 °F 88.2 °F 73.4 °F 74% 29.96 in 6.2 mi East 6.9 mph - N/A   Mostly Cloudy
6:00 PM 80 °F - 74 °F 79% 29.97 in 12 mi ESE 3.5 mph - -  
6:00 PM 78.8 °F - 75.2 °F 89% 29.97 in 6.2 mi ESE 3.5 mph - N/A   Mostly Cloudy
9:00 PM 76 °F - 74 °F 91% 30.02 in 12 mi Calm Calm - -   Partly Cloudy
9:00 PM 75.2 °F - 73.4 °F 94% 30.01 in 6.2 mi Calm Calm - N/A   Scattered Clouds